ZY-1 02D

Satellite information

Favourite Embed

Satellite Type and Status

PAYLOADIN ORBIT

Key statistics

Satellite ZY-1 02D at a glance.

Uptime

2066

Days in orbit

Revolutions

≈ 14.4

Per day

Orbit

SSO

Sun Synchronous Orbit

Inclination

98.4

Latest

Satellite identification and parameters

Extended collection of information and parameters for ZY-1 02D.

Object identification

Identified? True

Debris? False

Object name: ZY-1 02D

International designator: 2019-059A

Object number (NORAD): 44528

Object ID (CCSDS): 44528

Country: PEOPLES REPUBLIC OF CHINA (PRC)

Current information (Y/N): Y

RCS size: LARGE

Orbital parameters

Period: 100.319 minutes

Inclination: 98.3687 deg

SMA: 7151.793 km

Apoapsis: 774.119 km

Periapsis: 773.197 km

RAAN: 198.4899 deg

Eccentricy: 0.0000644

Argument of periapsis: 193.1332 deg

Mean anomaly: 166.9838 deg

Mean motion: 14.35424494 rev/day

Mean motion (dot): 0.00000225 rev/day2

B* drag term: 0.000093118 1/REarth

Two-line elements (TLE)

Creation date: May 9, 2025, 2:46 a.m.

Reference frame: TEME

Reference center: EARTH

Epoch: May 8, 2025, 10:04 p.m. UTC

TLE line 0: 0 ZY-1 02D

TLE line 1: 1 44528U 19059A 25128.91970523 .00000225 00000-0 93118-4 0 9996

TLE line 2: 2 44528 98.3687 198.4899 0000644 193.1332 166.9838 14.35424494296345

Live tracking on map

Real-time ground track for satellite ZY-1 02D.

In-orbit conjunctions

There are no conjunctions computed for ZY-1 02D, at the moment. Check back to stay up to date, as we update our databases every day.

Go to all conjunctions

Associated space launch

ZY-1 02D was lifted into orbit during the mission ‘Long March 4B | Ziyuan-2D, Tianyi MV-1, BNU-1’, on board a Long March 4B space rocket.

The launch took place on Sept. 12, 2019, 3:26 a.m. from Launch Complex 9.

For more information about the launch, click the button.

Launch to space Long March 4B | Ziyuan-2D, Tianyi MV-1, BNU-1
Long March 4B | Ziyuan-2D, Tianyi MV-1, BNU-1

Agency: N/A

Status: Launch Successful

Launch date: Sept. 12, 2019, 3:26 a.m. UTC

Rocket: Long March 4B

Launch pad: Launch Complex 9

Location: Taiyuan Satellite Launch Center, People's Republic of China

...

Latest news about this satellite

News about space launch
China returns Long March 4 to service with Ziyuan launch


Newsletter sign-up

Weekly statistics, charts and insights to help you stay on top of the space industry.